Time,TemperatureF,DewpointF,PressureIn,WindDirection,WindDirectionDegrees,WindSpeedMPH,WindSpeedGustMPH,Humidity,HourlyPrecipIn,Conditions,Clouds,dailyrainin,SoftwareType,DateUTC
2013-06-17 00:01:00,67.6,45.6,29.41,SSW,198,0.0,0.0,45,0.00,,SKC,0.00,VWS V14.01,2013-06-17 04:01:00,
2013-06-17 00:06:00,67.6,46.1,29.41,SSW,198,0.0,0.0,46,0.00,,SKC,0.00,VWS V14.01,2013-06-17 04:06:00,
2013-06-17 00:11:00,67.5,46.0,29.41,SSW,198,0.0,0.0,46,0.00,,SKC,0.00,VWS V14.01,2013-06-17 04:11:00,
2013-06-17 00:16:00,67.5,46.5,29.41,SSW,198,0.0,0.0,47,0.00,,SKC,0.00,VWS V14.01,2013-06-17 04:16:00,
2013-06-17 00:21:00,67.3,46.4,29.41,SSW,198,0.0,0.0,47,0.00,,SKC,0.00,VWS V14.01,2013-06-17 04:21:00,
2013-06-17 00:26:00,67.1,46.8,29.41,SSW,198,0.0,0.0,48,0.00,,SKC,0.00,VWS V14.01,2013-06-17 04:26:00,
2013-06-17 00:31:00,66.9,46.6,29.41,SSW,198,0.0,0.0,48,0.00,,SKC,0.00,VWS V14.01,2013-06-17 04:31:00,
2013-06-17 00:36:00,66.7,47.0,29.41,SSW,198,0.0,0.0,49,0.00,,SKC,0.00,VWS V14.01,2013-06-17 04:36:00,
2013-06-17 00:41:00,66.6,46.8,29.41,SSW,198,0.0,0.0,49,0.00,,SKC,0.00,VWS V14.01,2013-06-17 04:41:00,
2013-06-17 00:46:00,66.4,46.7,29.41,SSW,198,0.0,0.0,49,0.00,,SKC,0.00,VWS V14.01,2013-06-17 04:46:00,
2013-06-17 00:51:00,66.4,47.2,29.41,SSW,198,0.0,0.0,50,0.00,,SKC,0.00,VWS V14.01,2013-06-17 04:51:00,
2013-06-17 00:56:00,66.2,47.0,29.41,SSW,198,0.0,0.0,50,0.00,,SKC,0.00,VWS V14.01,2013-06-17 04:56:00,
2013-06-17 01:01:00,66.0,47.4,29.41,SSW,198,0.0,0.0,51,0.00,,SKC,0.00,VWS V14.01,2013-06-17 05:01:00,
2013-06-17 01:06:00,65.8,47.7,29.41,SSW,198,0.0,0.0,52,0.00,,SKC,0.00,VWS V14.01,2013-06-17 05:06:00,
2013-06-17 01:11:00,65.8,47.7,29.41,SSW,198,0.0,0.0,52,0.00,,SKC,0.00,VWS V14.01,2013-06-17 05:11:00,
2013-06-17 01:16:00,65.7,48.1,29.41,SSW,198,0.0,0.0,53,0.00,,SKC,0.00,VWS V14.01,2013-06-17 05:16:00,
2013-06-17 01:21:00,65.5,47.9,29.41,SSW,197,0.0,0.0,53,0.00,,SKC,0.00,VWS V14.01,2013-06-17 05:21:00,
2013-06-17 01:25:00,65.3,48.2,29.41,SSW,198,0.0,0.0,54,0.00,,SKC,0.00,VWS V14.01,2013-06-17 05:25:00,
2013-06-17 01:30:00,65.1,48.1,29.41,SSW,198,0.0,0.0,54,0.00,,SKC,0.00,VWS V14.01,2013-06-17 05:30:00,
2013-06-17 01:35:00,65.1,48.6,29.41,SSW,198,0.0,0.0,55,0.00,,SKC,0.00,VWS V14.01,2013-06-17 05:35:00,
2013-06-17 01:40:00,64.9,48.4,29.41,SSW,198,0.0,0.0,55,0.00,,SKC,0.00,VWS V14.01,2013-06-17 05:40:00,
2013-06-17 01:45:00,64.8,48.2,29.41,SSW,198,0.0,0.0,55,0.00,,SKC,0.00,VWS V14.01,2013-06-17 05:45:00,
2013-06-17 01:50:00,64.8,48.7,29.41,SSW,198,0.0,0.0,56,0.00,,SKC,0.00,VWS V14.01,2013-06-17 05:50:00,
2013-06-17 01:55:00,64.6,48.5,29.41,SSW,198,0.0,0.0,56,0.00,,SKC,0.00,VWS V14.01,2013-06-17 05:55:00,
2013-06-17 02:00:00,64.4,48.4,29.41,SSW,198,0.0,0.0,56,0.00,,SKC,0.00,VWS V14.01,2013-06-17 06:00:00,
2013-06-17 02:05:00,64.2,48.7,29.41,SSW,198,0.0,0.0,57,0.00,,SKC,0.00,VWS V14.01,2013-06-17 06:05:00,
2013-06-17 02:10:00,64.2,49.2,29.41,SSW,198,0.0,0.0,58,0.00,,SKC,0.00,VWS V14.01,2013-06-17 06:10:00,
2013-06-17 02:15:00,64.0,49.0,29.41,SSW,198,0.0,0.0,58,0.00,,SKC,0.00,VWS V14.01,2013-06-17 06:15:00,
2013-06-17 02:20:00,64.0,49.4,29.41,SSW,198,0.0,0.0,59,0.00,,SKC,0.00,VWS V14.01,2013-06-17 06:20:00,
2013-06-17 02:25:00,63.9,49.3,29.41,SSW,198,0.0,0.0,59,0.00,,SKC,0.00,VWS V14.01,2013-06-17 06:25:00,
2013-06-17 02:30:00,63.7,49.5,29.41,SSW,198,0.0,0.0,60,0.00,,SKC,0.00,VWS V14.01,2013-06-17 06:30:00,
2013-06-17 02:35:00,63.7,49.5,29.41,SSW,198,0.0,0.0,60,0.00,,SKC,0.00,VWS V14.01,2013-06-17 06:35:00,
2013-06-17 02:40:00,63.5,49.4,29.41,SSW,198,0.0,0.0,60,0.00,,SKC,0.00,VWS V14.01,2013-06-17 06:40:00,
2013-06-17 02:45:00,63.5,49.8,29.41,SSW,198,0.0,0.0,61,0.00,,SKC,0.00,VWS V14.01,2013-06-17 06:45:00,
2013-06-17 02:50:00,63.5,50.3,29.41,SSW,198,0.0,0.0,62,0.00,,SKC,0.00,VWS V14.01,2013-06-17 06:50:00,
2013-06-17 02:55:00,63.5,50.3,29.41,SSW,198,0.0,0.0,62,0.00,,SKC,0.00,VWS V14.01,2013-06-17 06:55:00,
2013-06-17 03:00:00,63.3,50.1,29.41,SSW,198,0.0,0.0,62,0.00,,SKC,0.00,VWS V14.01,2013-06-17 07:00:00,
2013-06-17 03:05:00,63.1,50.3,29.41,SSW,197,0.0,0.0,63,0.00,,SKC,0.00,VWS V14.01,2013-06-17 07:05:00,
2013-06-17 03:10:00,63.1,50.3,29.41,SSW,198,0.0,0.0,63,0.00,,SKC,0.00,VWS V14.01,2013-06-17 07:10:00,
2013-06-17 03:15:00,63.0,50.2,29.41,SSW,198,0.0,0.0,63,0.00,,SKC,0.00,VWS V14.01,2013-06-17 07:15:00,
2013-06-17 03:20:00,63.0,50.6,29.41,SSW,198,0.0,0.0,64,0.00,,SKC,0.00,VWS V14.01,2013-06-17 07:20:00,
2013-06-17 03:25:00,63.0,50.6,29.41,SSW,198,0.0,0.0,64,0.00,,SKC,0.00,VWS V14.01,2013-06-17 07:25:00,
2013-06-17 03:30:00,63.0,51.0,29.41,SSW,198,0.0,0.0,65,0.00,,SKC,0.00,VWS V14.01,2013-06-17 07:30:00,
2013-06-17 03:35:00,63.0,51.0,29.41,SSW,198,0.0,0.0,65,0.00,,SKC,0.00,VWS V14.01,2013-06-17 07:35:00,
2013-06-17 03:40:00,63.0,51.0,29.41,SSW,198,0.0,0.0,65,0.00,,SKC,0.00,VWS V14.01,2013-06-17 07:40:00,
2013-06-17 03:45:00,63.0,51.4,29.41,SSW,198,0.0,0.0,66,0.00,,SKC,0.00,VWS V14.01,2013-06-17 07:45:00,
2013-06-17 03:50:00,63.0,51.4,29.41,SSW,197,0.0,0.0,66,0.00,,SKC,0.00,VWS V14.01,2013-06-17 07:50:00,
2013-06-17 03:55:00,63.0,51.4,29.41,SSW,198,0.0,0.0,66,0.00,,SKC,0.00,VWS V14.01,2013-06-17 07:55:00,
2013-06-17 04:00:00,63.0,51.8,29.41,SSW,198,0.0,0.0,67,0.00,,SKC,0.00,VWS V14.01,2013-06-17 08:00:00,
2013-06-17 04:05:00,62.8,51.3,29.41,SSW,198,0.0,0.0,66,0.00,,SKC,0.00,VWS V14.01,2013-06-17 08:05:00,
2013-06-17 04:10:00,62.6,51.1,29.41,SSW,198,0.0,0.0,66,0.00,,SKC,0.00,VWS V14.01,2013-06-17 08:10:00,
2013-06-17 04:15:00,62.4,51.3,29.41,SSW,198,0.0,0.0,67,0.00,,SKC,0.00,VWS V14.01,2013-06-17 08:15:00,
2013-06-17 04:20:00,62.2,51.2,29.41,SSW,198,0.0,0.0,67,0.00,,SKC,0.00,VWS V14.01,2013-06-17 08:20:00,
2013-06-17 04:25:00,62.2,51.6,29.41,SSW,198,0.0,0.0,68,0.00,,SKC,0.00,VWS V14.01,2013-06-17 08:25:00,
2013-06-17 04:30:00,62.1,51.4,29.41,SSW,198,0.0,0.0,68,0.00,,SKC,0.00,VWS V14.01,2013-06-17 08:30:00,
2013-06-17 04:35:00,61.9,51.2,29.41,SSW,198,0.0,0.0,68,0.00,,SKC,0.00,VWS V14.01,2013-06-17 08:35:00,
2013-06-17 04:40:00,61.9,51.6,29.41,SSW,198,0.0,0.0,69,0.00,,SKC,0.00,VWS V14.01,2013-06-17 08:40:00,
2013-06-17 04:45:00,61.9,51.6,29.44,SSW,198,0.0,0.0,69,0.00,,SKC,0.00,VWS V14.01,2013-06-17 08:45:00,
2013-06-17 04:50:00,61.9,51.6,29.44,SSW,198,0.0,0.0,69,0.00,,SKC,0.00,VWS V14.01,2013-06-17 08:50:00,
2013-06-17 04:55:00,61.9,51.6,29.44,SSW,198,0.0,0.0,69,0.00,,SKC,0.00,VWS V14.01,2013-06-17 08:55:00,
2013-06-17 05:00:00,61.9,52.0,29.44,SSW,198,0.0,0.0,70,0.00,,SKC,0.00,VWS V14.01,2013-06-17 09:00:00,
2013-06-17 05:05:00,61.9,52.0,29.44,SSW,198,0.0,0.0,70,0.00,,SKC,0.00,VWS V14.01,2013-06-17 09:05:00,
2013-06-17 05:10:00,62.1,52.2,29.44,SSW,197,0.0,0.0,70,0.00,,SKC,0.00,VWS V14.01,2013-06-17 09:10:00,
2013-06-17 05:15:00,62.1,52.6,29.44,SSW,197,0.0,0.0,71,0.00,,SKC,0.00,VWS V14.01,2013-06-17 09:15:00,
2013-06-17 05:20:00,62.2,52.7,29.44,SSW,197,0.0,0.0,71,0.00,,SKC,0.00,VWS V14.01,2013-06-17 09:20:00,
2013-06-17 05:25:00,62.4,52.9,29.44,SSW,197,0.0,0.0,71,0.00,,SKC,0.00,VWS V14.01,2013-06-17 09:25:00,
2013-06-17 05:30:00,62.6,53.1,29.44,SSW,198,0.0,0.0,71,0.00,,SKC,0.00,VWS V14.01,2013-06-17 09:30:00,
2013-06-17 05:35:00,62.6,53.1,29.44,SSW,197,0.0,0.0,71,0.00,,SKC,0.00,VWS V14.01,2013-06-17 09:35:00,
2013-06-17 05:40:00,62.6,53.1,29.44,SSW,197,0.0,0.0,71,0.00,,SKC,0.00,VWS V14.01,2013-06-17 09:40:00,
2013-06-17 05:45:00,62.6,53.1,29.44,SSW,197,0.0,0.0,71,0.00,,SKC,0.00,VWS V14.01,2013-06-17 09:45:00,
2013-06-17 05:50:00,62.6,53.1,29.44,SSW,197,0.0,0.0,71,0.00,,SKC,0.00,VWS V14.01,2013-06-17 09:50:00,
2013-06-17 05:55:00,62.6,53.5,29.44,SSW,197,0.0,0.0,72,0.00,,SKC,0.00,VWS V14.01,2013-06-17 09:55:00,
2013-06-17 06:00:00,62.6,53.5,29.44,SSW,197,0.0,0.0,72,0.00,,SKC,0.00,VWS V14.01,2013-06-17 10:00:00,
2013-06-17 06:05:00,62.4,53.3,29.44,SSW,197,0.0,0.0,72,0.00,,SKC,0.00,VWS V14.01,2013-06-17 10:05:00,
2013-06-17 06:10:00,62.2,53.1,29.44,SSW,197,0.0,0.0,72,0.00,,SKC,0.00,VWS V14.01,2013-06-17 10:10:00,
2013-06-17 06:15:00,62.2,53.5,29.44,SSW,198,0.0,0.0,73,0.00,,SKC,0.00,VWS V14.01,2013-06-17 10:15:00,
2013-06-17 06:20:00,62.4,53.7,29.44,SSW,197,0.0,0.0,73,0.00,,SKC,0.00,VWS V14.01,2013-06-17 10:20:00,
2013-06-17 06:25:00,62.6,53.8,29.44,SSW,197,0.0,0.0,73,0.00,,SKC,0.00,VWS V14.01,2013-06-17 10:25:00,
2013-06-17 06:30:00,63.0,54.2,29.44,SSW,197,0.0,0.0,73,0.00,,SKC,0.00,VWS V14.01,2013-06-17 10:30:00,
2013-06-17 06:35:00,63.1,54.3,29.44,SSW,197,0.0,0.0,73,0.00,,SKC,0.00,VWS V14.01,2013-06-17 10:35:00,
2013-06-17 06:40:00,63.3,54.9,29.44,SSW,197,0.0,0.0,74,0.00,,SKC,0.00,VWS V14.01,2013-06-17 10:40:00,
2013-06-17 06:45:00,63.5,55.1,29.44,SSW,197,0.0,0.0,74,0.00,,SKC,0.00,VWS V14.01,2013-06-17 10:45:00,
2013-06-17 06:50:00,63.7,55.2,29.44,SSW,198,0.0,0.0,74,0.00,,SKC,0.00,VWS V14.01,2013-06-17 10:50:00,
2013-06-17 06:55:00,63.9,55.4,29.44,SSW,197,0.0,0.0,74,0.00,,SKC,0.00,VWS V14.01,2013-06-17 10:55:00,
2013-06-17 07:00:00,64.0,56.0,29.44,SSW,198,0.0,0.0,75,0.00,,SKC,0.00,VWS V14.01,2013-06-17 11:00:00,
2013-06-17 07:05:00,64.2,56.1,29.44,SSW,197,0.0,0.0,75,0.00,,SKC,0.00,VWS V14.01,2013-06-17 11:05:00,
2013-06-17 07:10:00,64.4,56.3,29.44,SSW,198,0.0,0.0,75,0.00,,SKC,0.00,VWS V14.01,2013-06-17 11:10:00,
2013-06-17 07:15:00,64.6,56.5,29.44,SSW,197,0.0,0.0,75,0.00,,SKC,0.00,VWS V14.01,2013-06-17 11:15:00,
2013-06-17 07:20:00,64.8,56.7,29.44,SSW,198,0.0,0.0,75,0.00,,SKC,0.00,VWS V14.01,2013-06-17 11:20:00,
2013-06-17 07:25:00,64.8,57.0,29.44,SSW,197,0.0,0.0,76,0.00,,SKC,0.00,VWS V14.01,2013-06-17 11:25:00,
2013-06-17 07:30:00,64.9,57.2,29.44,SSW,197,0.0,0.0,76,0.00,,SKC,0.00,VWS V14.01,2013-06-17 11:30:00,
2013-06-17 07:35:00,65.5,58.5,29.44,SSW,198,0.0,0.0,78,0.00,,SKC,0.00,VWS V14.01,2013-06-17 11:35:00,
2013-06-17 07:40:00,65.8,58.8,29.44,SSW,197,0.0,0.0,78,0.00,,SKC,0.00,VWS V14.01,2013-06-17 11:40:00,
2013-06-17 07:45:00,66.0,59.0,29.44,SSW,197,0.0,0.0,78,0.00,,SKC,0.00,VWS V14.01,2013-06-17 11:45:00,
2013-06-17 07:50:00,66.6,59.8,29.44,SSW,197,0.0,0.0,79,0.00,,SKC,0.00,VWS V14.01,2013-06-17 11:50:00,
2013-06-17 07:55:00,67.1,60.4,29.44,SSW,198,0.0,0.0,79,0.00,,SKC,0.00,VWS V14.01,2013-06-17 11:55:00,
2013-06-17 08:00:00,67.5,60.4,29.47,SSW,197,0.0,0.0,78,0.00,,SKC,0.00,VWS V14.01,2013-06-17 12:00:00,
2013-06-17 08:05:00,68.0,60.5,29.47,SSW,198,0.0,0.0,77,0.00,,SKC,0.00,VWS V14.01,2013-06-17 12:05:00,
2013-06-17 08:10:00,68.5,60.7,29.47,SSW,197,0.0,0.0,76,0.00,,SKC,0.00,VWS V14.01,2013-06-17 12:10:00,
2013-06-17 08:15:00,69.1,60.5,29.47,SSW,197,0.0,0.0,74,0.00,,SKC,0.00,VWS V14.01,2013-06-17 12:15:00,
2013-06-17 08:20:00,69.4,59.6,29.47,SSW,197,0.0,0.0,71,0.00,,SKC,0.00,VWS V14.01,2013-06-17 12:20:00,
2013-06-17 08:25:00,70.2,57.9,29.47,SSW,197,0.0,0.0,65,0.00,,SKC,0.00,VWS V14.01,2013-06-17 12:25:00,
2013-06-17 08:30:00,70.5,56.4,29.44,SSW,197,0.0,0.0,61,0.00,,SKC,0.00,VWS V14.01,2013-06-17 12:30:00,
2013-06-17 08:35:00,71.1,52.6,29.44,SSW,197,0.0,0.0,52,0.00,,SKC,0.00,VWS V14.01,2013-06-17 12:35:00,
2013-06-17 08:40:00,72.0,53.9,29.44,SSW,197,0.0,0.0,53,0.00,,SKC,0.00,VWS V14.01,2013-06-17 12:40:00,
2013-06-17 08:45:00,72.3,51.5,29.44,SSE,162,0.0,0.0,48,0.00,,SKC,0.00,VWS V14.01,2013-06-17 12:45:00,
2013-06-17 08:49:00,72.7,50.7,29.44,SSE,162,0.0,0.0,46,0.00,,SKC,0.00,VWS V14.01,2013-06-17 12:49:00,
2013-06-17 08:54:00,73.2,49.4,29.44,SSE,150,0.0,0.0,43,0.00,,SKC,0.00,VWS V14.01,2013-06-17 12:54:00,
2013-06-17 08:59:00,73.8,48.6,29.44,SSE,158,0.0,0.0,41,0.00,,SKC,0.00,VWS V14.01,2013-06-17 12:59:00,
2013-06-17 09:04:00,74.3,47.1,29.44,SSE,152,0.0,0.0,38,0.00,,SKC,0.00,VWS V14.01,2013-06-17 13:04:00,
2013-06-17 09:09:00,74.8,47.6,29.44,SSE,149,0.0,0.0,38,0.00,,SKC,0.00,VWS V14.01,2013-06-17 13:09:00,
2013-06-17 09:14:00,75.4,47.3,29.44,SSE,149,0.0,0.0,37,0.00,,SKC,0.00,VWS V14.01,2013-06-17 13:14:00,
2013-06-17 09:19:00,75.9,45.6,29.44,East,89,0.0,0.0,34,0.00,,SKC,0.00,VWS V14.01,2013-06-17 13:19:00,
2013-06-17 09:24:00,76.3,45.9,29.44,WNW,301,4.8,4.8,34,0.00,,SKC,0.00,VWS V14.01,2013-06-17 13:24:00,
2013-06-17 09:29:00,76.5,46.0,29.44,North,3,0.0,0.0,34,0.00,,SKC,0.00,VWS V14.01,2013-06-17 13:29:00,
2013-06-17 09:34:00,76.8,46.3,29.44,NNE,12,0.0,0.0,34,0.00,,SKC,0.00,VWS V14.01,2013-06-17 13:34:00,
2013-06-17 09:39:00,77.0,44.9,29.44,East,93,0.0,0.0,32,0.00,,SKC,0.00,VWS V14.01,2013-06-17 13:39:00,
2013-06-17 09:44:00,77.4,45.2,29.44,SE,140,4.0,4.0,32,0.00,,SKC,0.00,VWS V14.01,2013-06-17 13:44:00,
2013-06-17 09:49:00,77.4,46.0,29.44,ESE,114,0.0,0.0,33,0.00,,SKC,0.00,VWS V14.01,2013-06-17 13:49:00,
2013-06-17 09:54:00,77.2,45.1,29.44,ESE,115,0.0,2.7,32,0.00,,SKC,0.00,VWS V14.01,2013-06-17 13:54:00,
2013-06-17 09:59:00,77.2,45.1,29.44,ESE,103,0.0,0.0,32,0.00,,SKC,0.00,VWS V14.01,2013-06-17 13:59:00,
2013-06-17 10:04:00,77.2,45.1,29.44,ESE,103,0.0,0.0,32,0.00,,SKC,0.00,VWS V14.01,2013-06-17 14:04:00,
2013-06-17 10:09:00,77.7,45.5,29.44,SE,128,0.0,0.0,32,0.00,,SKC,0.00,VWS V14.01,2013-06-17 14:09:00,
2013-06-17 10:14:00,78.3,44.3,29.44,ESE,107,0.0,0.0,30,0.00,,SKC,0.00,VWS V14.01,2013-06-17 14:14:00,
2013-06-17 10:19:00,78.8,44.8,29.44,NNW,340,0.0,2.7,30,0.00,,SKC,0.00,VWS V14.01,2013-06-17 14:19:00,
2013-06-17 10:24:00,79.2,45.1,29.44,SE,140,4.0,4.0,30,0.00,,SKC,0.00,VWS V14.01,2013-06-17 14:24:00,
2013-06-17 10:29:00,79.5,41.7,29.44,SE,133,4.0,4.0,26,0.00,,SKC,0.00,VWS V14.01,2013-06-17 14:29:00,
2013-06-17 10:34:00,79.7,41.8,29.44,South,176,0.0,0.0,26,0.00,,SKC,0.00,VWS V14.01,2013-06-17 14:34:00,
2013-06-17 10:39:00,80.2,42.3,29.44,SSE,154,0.0,0.0,26,0.00,,SKC,0.00,VWS V14.01,2013-06-17 14:39:00,
2013-06-17 10:44:00,80.4,41.4,29.44,SE,145,0.0,0.0,25,0.00,,SKC,0.00,VWS V14.01,2013-06-17 14:44:00,
2013-06-17 10:49:00,80.4,42.4,29.44,SSW,200,0.0,0.0,26,0.00,,SKC,0.00,VWS V14.01,2013-06-17 14:49:00,
2013-06-17 10:54:00,80.6,40.5,29.44,South,190,6.4,6.4,24,0.00,,SKC,0.00,VWS V14.01,2013-06-17 14:54:00,
2013-06-17 10:59:00,81.0,40.8,29.41,SSE,164,0.0,0.0,24,0.00,,SKC,0.00,VWS V14.01,2013-06-17 14:59:00,
2013-06-17 11:04:00,81.5,40.2,29.41,SSE,164,0.0,0.0,23,0.00,,SKC,0.00,VWS V14.01,2013-06-17 15:04:00,
2013-06-17 11:09:00,81.9,40.5,29.41,SSE,164,0.0,0.0,23,0.00,,SKC,0.00,VWS V14.01,2013-06-17 15:09:00,
2013-06-17 11:14:00,81.7,39.2,29.41,SSE,165,0.0,2.7,22,0.00,,SKC,0.00,VWS V14.01,2013-06-17 15:14:00,
2013-06-17 11:19:00,81.9,39.3,29.41,SE,128,4.8,4.8,22,0.00,,SKC,0.00,VWS V14.01,2013-06-17 15:19:00,
2013-06-17 11:24:00,82.2,39.6,29.41,SSE,160,0.0,0.0,22,0.00,,SKC,0.00,VWS V14.01,2013-06-17 15:24:00,
2013-06-17 11:29:00,82.2,39.6,29.41,SSE,163,4.0,4.0,22,0.00,,SKC,0.00,VWS V14.01,2013-06-17 15:29:00,
2013-06-17 11:34:00,82.2,38.4,29.41,SSE,162,8.9,8.9,21,0.00,,SKC,0.00,VWS V14.01,2013-06-17 15:34:00,
2013-06-17 11:39:00,82.4,38.6,29.41,SSE,168,5.6,5.6,21,0.00,,SKC,0.00,VWS V14.01,2013-06-17 15:39:00,
2013-06-17 11:44:00,82.0,38.3,29.41,SSE,160,0.0,0.0,21,0.00,,SKC,0.00,VWS V14.01,2013-06-17 15:44:00,
2013-06-17 11:49:00,81.7,39.2,29.41,ESE,122,0.0,0.0,22,0.00,,SKC,0.00,VWS V14.01,2013-06-17 15:49:00,
2013-06-17 11:54:00,81.9,39.3,29.41,ESE,112,0.0,0.0,22,0.00,,SKC,0.00,VWS V14.01,2013-06-17 15:54:00,
2013-06-17 11:59:00,81.7,39.2,29.41,East,98,4.8,4.8,22,0.00,,SKC,0.00,VWS V14.01,2013-06-17 15:59:00,
2013-06-17 12:04:00,81.7,39.2,29.41,SSW,210,5.6,5.6,22,0.00,,SKC,0.00,VWS V14.01,2013-06-17 16:04:00,
2013-06-17 12:09:00,82.2,39.6,29.41,SE,146,0.0,0.0,22,0.00,,SKC,0.00,VWS V14.01,2013-06-17 16:09:00,
2013-06-17 12:14:00,82.6,38.7,29.41,West,277,0.0,0.0,21,0.00,,SKC,0.00,VWS V14.01,2013-06-17 16:14:00,
2013-06-17 12:19:00,83.1,39.2,29.41,SW,227,5.6,5.6,21,0.00,,SKC,0.00,VWS V14.01,2013-06-17 16:19:00,
2013-06-17 12:24:00,83.5,38.2,29.41,SE,129,0.0,2.2,20,0.00,,SKC,0.00,VWS V14.01,2013-06-17 16:24:00,
2013-06-17 12:29:00,83.8,39.8,29.41,SE,130,0.0,0.0,21,0.00,,SKC,0.00,VWS V14.01,2013-06-17 16:29:00,
2013-06-17 12:34:00,83.8,38.5,29.41,SE,135,0.0,0.0,20,0.00,,SKC,0.00,VWS V14.01,2013-06-17 16:34:00,
2013-06-17 12:39:00,84.0,38.7,29.41,West,271,0.0,0.0,20,0.00,,SKC,0.00,VWS V14.01,2013-06-17 16:39:00,
2013-06-17 12:44:00,84.2,37.5,29.41,SE,133,4.8,4.8,19,0.00,,SKC,0.00,VWS V14.01,2013-06-17 16:44:00,
2013-06-17 12:49:00,83.8,37.2,29.41,North,7,0.0,0.0,19,0.00,,SKC,0.00,VWS V14.01,2013-06-17 16:49:00,
2013-06-17 12:54:00,83.8,38.5,29.41,SSE,158,0.0,2.7,20,0.00,,SKC,0.00,VWS V14.01,2013-06-17 16:54:00,
2013-06-17 12:59:00,84.0,38.7,29.41,SE,130,0.0,0.0,20,0.00,,SKC,0.00,VWS V14.01,2013-06-17 16:59:00,
2013-06-17 13:04:00,84.4,37.7,29.41,NE,52,4.0,4.0,19,0.00,,SKC,0.00,VWS V14.01,2013-06-17 17:04:00,
2013-06-17 13:09:00,84.4,39.0,29.41,SE,128,4.8,4.8,20,0.00,,SKC,0.00,VWS V14.01,2013-06-17 17:09:00,
2013-06-17 13:14:00,84.4,39.0,29.41,SE,135,0.0,0.0,20,0.00,,SKC,0.00,VWS V14.01,2013-06-17 17:14:00,
2013-06-17 13:19:00,84.7,39.3,29.41,SSE,150,7.2,7.2,20,0.00,,SKC,0.00,VWS V14.01,2013-06-17 17:19:00,
2013-06-17 13:24:00,84.9,38.1,29.41,North,357,4.8,4.8,19,0.00,,SKC,0.00,VWS V14.01,2013-06-17 17:24:00,
2013-06-17 13:29:00,85.1,36.9,29.41,SE,137,5.6,5.6,18,0.00,,SKC,0.00,VWS V14.01,2013-06-17 17:29:00,
2013-06-17 13:34:00,85.5,38.5,29.41,SSW,210,4.8,4.8,19,0.00,,SKC,0.00,VWS V14.01,2013-06-17 17:34:00,
2013-06-17 13:39:00,85.5,38.5,29.41,SE,141,0.0,0.0,19,0.00,,SKC,0.00,VWS V14.01,2013-06-17 17:39:00,
2013-06-17 13:44:00,85.5,37.2,29.41,ESE,110,0.0,0.0,18,0.00,,SKC,0.00,VWS V14.01,2013-06-17 17:44:00,
2013-06-17 13:49:00,84.9,36.7,29.41,NW,323,4.8,4.8,18,0.00,,SKC,0.00,VWS V14.01,2013-06-17 17:49:00,
2013-06-17 13:54:00,84.6,37.8,29.41,WSW,258,0.0,2.2,19,0.00,,SKC,0.00,VWS V14.01,2013-06-17 17:54:00,
2013-06-17 13:59:00,84.6,36.4,29.41,South,182,0.0,0.0,18,0.00,,SKC,0.00,VWS V14.01,2013-06-17 17:59:00,
2013-06-17 14:04:00,85.1,36.9,29.41,SE,128,5.6,5.6,18,0.00,,SKC,0.00,VWS V14.01,2013-06-17 18:04:00,
2013-06-17 14:09:00,85.6,37.3,29.41,ESE,115,6.4,6.4,18,0.00,,SKC,0.00,VWS V14.01,2013-06-17 18:09:00,
2013-06-17 14:14:00,85.8,37.5,29.41,WSW,243,4.0,4.0,18,0.00,,SKC,0.00,VWS V14.01,2013-06-17 18:14:00,
2013-06-17 14:19:00,85.8,34.5,29.41,SSE,167,4.0,4.0,16,0.00,,SKC,0.00,VWS V14.01,2013-06-17 18:19:00,
2013-06-17 14:24:00,85.8,34.5,29.41,East,90,4.8,4.8,16,0.00,,SKC,0.00,VWS V14.01,2013-06-17 18:24:00,
2013-06-17 14:29:00,85.8,37.5,29.41,ESE,119,5.6,5.6,18,0.00,,SKC,0.00,VWS V14.01,2013-06-17 18:29:00,
2013-06-17 14:34:00,86.2,34.8,29.41,ESE,115,5.6,5.6,16,0.00,,SKC,0.00,VWS V14.01,2013-06-17 18:34:00,
2013-06-17 14:39:00,86.4,34.9,29.41,East,97,8.9,8.9,16,0.00,,SKC,0.00,VWS V14.01,2013-06-17 18:39:00,
2013-06-17 14:44:00,86.4,34.9,29.38,South,171,7.2,7.2,16,0.00,,SKC,0.00,VWS V14.01,2013-06-17 18:44:00,
2013-06-17 14:49:00,86.5,35.1,29.38,South,175,0.0,2.7,16,0.00,,SKC,0.00,VWS V14.01,2013-06-17 18:49:00,
2013-06-17 14:54:00,86.4,34.9,29.38,SSE,147,0.0,2.7,16,0.00,,SKC,0.00,VWS V14.01,2013-06-17 18:54:00,
2013-06-17 14:59:00,86.4,37.9,29.38,South,169,0.0,0.0,18,0.00,,SKC,0.00,VWS V14.01,2013-06-17 18:59:00,
2013-06-17 15:04:00,86.7,38.2,29.38,SW,226,4.8,4.8,18,0.00,,SKC,0.00,VWS V14.01,2013-06-17 19:04:00,
2013-06-17 15:09:00,86.7,35.2,29.38,SW,233,0.0,2.2,16,0.00,,SKC,0.00,VWS V14.01,2013-06-17 19:09:00,
2013-06-17 15:13:00,86.7,38.2,29.38,SSW,199,0.0,0.0,18,0.00,,SKC,0.00,VWS V14.01,2013-06-17 19:13:00,
2013-06-17 15:18:00,86.5,38.0,29.38,ENE,65,0.0,4.0,18,0.00,,SKC,0.00,VWS V14.01,2013-06-17 19:18:00,
2013-06-17 15:24:00,86.5,38.0,29.38,SSE,148,0.0,0.0,18,0.00,,SKC,0.00,VWS V14.01,2013-06-17 19:24:00,
2013-06-17 15:29:00,86.7,38.2,29.38,West,269,4.0,4.0,18,0.00,,SKC,0.00,VWS V14.01,2013-06-17 19:29:00,
2013-06-17 15:33:00,86.7,38.2,29.38,SE,144,4.0,4.0,18,0.00,,SKC,0.00,VWS V14.01,2013-06-17 19:33:00,
2013-06-17 15:38:00,86.4,37.9,29.38,SW,221,0.0,3.1,18,0.00,,SKC,0.00,VWS V14.01,2013-06-17 19:38:00,
2013-06-17 15:43:00,86.0,37.6,29.38,SSE,162,0.0,0.0,18,0.00,,SKC,0.00,VWS V14.01,2013-06-17 19:43:00,
2013-06-17 15:48:00,85.6,37.3,29.38,SSW,211,0.0,0.0,18,0.00,,SKC,0.00,VWS V14.01,2013-06-17 19:48:00,
2013-06-17 15:53:00,85.3,37.0,29.38,SSE,157,0.0,2.7,18,0.00,,SKC,0.00,VWS V14.01,2013-06-17 19:53:00,
2013-06-17 15:58:00,85.1,38.2,29.38,WSW,243,4.0,4.0,19,0.00,,SKC,0.00,VWS V14.01,2013-06-17 19:58:00,
2013-06-17 16:03:00,84.9,38.1,29.38,SSW,192,0.0,0.0,19,0.00,,SKC,0.00,VWS V14.01,2013-06-17 20:03:00,
2013-06-17 16:08:00,84.7,38.0,29.38,WSW,245,0.0,5.8,19,0.00,,SKC,0.00,VWS V14.01,2013-06-17 20:08:00,
2013-06-17 16:13:00,84.4,37.7,29.38,SSW,200,4.8,4.8,19,0.00,,SKC,0.00,VWS V14.01,2013-06-17 20:13:00,
2013-06-17 16:18:00,84.6,37.8,29.38,ENE,70,4.0,4.0,19,0.00,,SKC,0.00,VWS V14.01,2013-06-17 20:18:00,
2013-06-17 16:23:00,84.9,38.1,29.38,SSW,194,0.0,2.2,19,0.00,,SKC,0.00,VWS V14.01,2013-06-17 20:23:00,
2013-06-17 16:28:00,84.9,38.1,29.38,SW,215,4.0,4.0,19,0.00,,SKC,0.00,VWS V14.01,2013-06-17 20:28:00,
2013-06-17 16:33:00,84.9,38.1,29.38,WSW,252,0.0,7.2,19,0.00,,SKC,0.00,VWS V14.01,2013-06-17 20:33:00,
2013-06-17 16:38:00,84.9,38.1,29.38,ESE,108,4.8,4.8,19,0.00,,SKC,0.00,VWS V14.01,2013-06-17 20:38:00,
2013-06-17 16:43:00,84.9,38.1,29.38,WSW,238,0.0,0.0,19,0.00,,SKC,0.00,VWS V14.01,2013-06-17 20:43:00,
2013-06-17 16:48:00,85.1,38.2,29.38,SE,133,0.0,0.0,19,0.00,,SKC,0.00,VWS V14.01,2013-06-17 20:48:00,
2013-06-17 16:53:00,84.9,38.1,29.38,SW,218,0.0,0.0,19,0.00,,SKC,0.00,VWS V14.01,2013-06-17 20:53:00,
2013-06-17 16:58:00,84.9,38.1,29.38,SW,216,0.0,0.0,19,0.00,,SKC,0.00,VWS V14.01,2013-06-17 20:58:00,
2013-06-17 17:03:00,84.9,38.1,29.38,SSE,158,0.0,0.0,19,0.00,,SKC,0.00,VWS V14.01,2013-06-17 21:03:00,
2013-06-17 17:08:00,84.7,38.0,29.38,SW,229,0.0,3.6,19,0.00,,SKC,0.00,VWS V14.01,2013-06-17 21:08:00,
2013-06-17 17:13:00,84.6,37.8,29.38,East,92,0.0,2.7,19,0.00,,SKC,0.00,VWS V14.01,2013-06-17 21:13:00,
2013-06-17 17:18:00,84.7,38.0,29.38,South,175,0.0,0.0,19,0.00,,SKC,0.00,VWS V14.01,2013-06-17 21:18:00,
2013-06-17 17:23:00,84.9,38.1,29.38,SE,126,0.0,0.0,19,0.00,,SKC,0.00,VWS V14.01,2013-06-17 21:23:00,
2013-06-17 17:28:00,84.9,38.1,29.38,SE,129,0.0,0.0,19,0.00,,SKC,0.00,VWS V14.01,2013-06-17 21:28:00,
2013-06-17 17:33:00,84.9,38.1,29.38,SE,134,0.0,0.0,19,0.00,,SKC,0.00,VWS V14.01,2013-06-17 21:33:00,
2013-06-17 17:38:00,84.9,38.1,29.38,SSE,166,0.0,0.0,19,0.00,,SKC,0.00,VWS V14.01,2013-06-17 21:38:00,
2013-06-17 17:43:00,84.9,38.1,29.38,SSE,161,0.0,0.0,19,0.00,,SKC,0.00,VWS V14.01,2013-06-17 21:43:00,
2013-06-17 17:48:00,84.7,38.0,29.38,East,85,0.0,0.0,19,0.00,,SKC,0.00,VWS V14.01,2013-06-17 21:48:00,
2013-06-17 17:53:00,84.7,38.0,29.38,SSW,213,0.0,0.0,19,0.00,,SKC,0.00,VWS V14.01,2013-06-17 21:53:00,
2013-06-17 17:58:00,84.9,38.1,29.38,East,83,0.0,0.0,19,0.00,,SKC,0.00,VWS V14.01,2013-06-17 21:58:00,
2013-06-17 18:03:00,85.1,38.2,29.38,North,357,0.0,0.0,19,0.00,,SKC,0.00,VWS V14.01,2013-06-17 22:03:00,
2013-06-17 18:08:00,85.5,37.2,29.38,WSW,249,0.0,3.6,18,0.00,,SKC,0.00,VWS V14.01,2013-06-17 22:08:00,
2013-06-17 18:13:00,85.5,37.2,29.38,WNW,293,0.0,0.0,18,0.00,,SKC,0.00,VWS V14.01,2013-06-17 22:13:00,
2013-06-17 18:18:00,85.1,36.9,29.38,SSE,163,0.0,0.0,18,0.00,,SKC,0.00,VWS V14.01,2013-06-17 22:18:00,
2013-06-17 18:23:00,84.9,36.7,29.38,SSE,163,0.0,0.0,18,0.00,,SKC,0.00,VWS V14.01,2013-06-17 22:23:00,
2013-06-17 18:28:00,84.7,36.6,29.38,ESE,123,0.0,0.0,18,0.00,,SKC,0.00,VWS V14.01,2013-06-17 22:28:00,
2013-06-17 18:33:00,84.0,37.4,29.38,WSW,253,0.0,0.0,19,0.00,,SKC,0.00,VWS V14.01,2013-06-17 22:33:00,
2013-06-17 18:38:00,83.5,36.9,29.38,SE,139,0.0,0.0,19,0.00,,SKC,0.00,VWS V14.01,2013-06-17 22:38:00,
2013-06-17 18:43:00,82.8,36.3,29.38,ENE,66,0.0,0.0,19,0.00,,SKC,0.00,VWS V14.01,2013-06-17 22:43:00,
2013-06-17 18:48:00,82.6,36.2,29.38,ENE,66,0.0,0.0,19,0.00,,SKC,0.00,VWS V14.01,2013-06-17 22:48:00,
2013-06-17 18:53:00,82.2,37.2,29.38,ENE,66,0.0,0.0,20,0.00,,SKC,0.00,VWS V14.01,2013-06-17 22:53:00,
2013-06-17 18:58:00,82.0,37.0,29.38,ENE,66,0.0,0.0,20,0.00,,SKC,0.00,VWS V14.01,2013-06-17 22:58:00,
2013-06-17 19:03:00,81.5,36.6,29.38,ENE,66,0.0,0.0,20,0.00,,SKC,0.00,VWS V14.01,2013-06-17 23:03:00,
2013-06-17 19:08:00,81.3,36.5,29.38,ENE,66,0.0,0.0,20,0.00,,SKC,0.00,VWS V14.01,2013-06-17 23:08:00,
2013-06-17 19:13:00,81.0,36.2,29.38,ENE,66,0.0,0.0,20,0.00,,SKC,0.00,VWS V14.01,2013-06-17 23:13:00,
2013-06-17 19:18:00,80.6,35.9,29.38,ENE,66,0.0,0.0,20,0.00,,SKC,0.00,VWS V14.01,2013-06-17 23:18:00,
2013-06-17 19:23:00,80.2,36.8,29.38,ENE,66,0.0,0.0,21,0.00,,SKC,0.00,VWS V14.01,2013-06-17 23:23:00,
2013-06-17 19:28:00,80.1,36.7,29.41,ENE,66,0.0,0.0,21,0.00,,SKC,0.00,VWS V14.01,2013-06-17 23:28:00,
2013-06-17 19:33:00,79.9,36.5,29.41,ENE,66,0.0,0.0,21,0.00,,SKC,0.00,VWS V14.01,2013-06-17 23:33:00,
2013-06-17 19:38:00,79.9,37.7,29.41,ENE,70,0.0,0.0,22,0.00,,SKC,0.00,VWS V14.01,2013-06-17 23:38:00,
2013-06-17 19:43:00,79.5,37.4,29.41,ENE,70,0.0,0.0,22,0.00,,SKC,0.00,VWS V14.01,2013-06-17 23:43:00,
2013-06-17 19:48:00,79.0,38.1,29.41,East,79,0.0,0.0,23,0.00,,SKC,0.00,VWS V14.01,2013-06-17 23:48:00,
2013-06-17 19:53:00,78.6,38.8,29.41,East,79,0.0,0.0,24,0.00,,SKC,0.00,VWS V14.01,2013-06-17 23:53:00,
2013-06-17 19:58:00,78.3,37.5,29.41,East,79,0.0,0.0,23,0.00,,SKC,0.00,VWS V14.01,2013-06-17 23:58:00,
2013-06-17 20:03:00,78.1,35.0,29.41,NE,38,0.0,0.0,21,0.00,,SKC,0.00,VWS V14.01,2013-06-18 00:03:00,
2013-06-17 20:08:00,77.9,34.9,29.41,East,89,4.8,4.8,21,0.00,,SKC,0.00,VWS V14.01,2013-06-18 00:08:00,
2013-06-17 20:13:00,77.9,34.9,29.41,NE,51,7.2,7.2,21,0.00,,SKC,0.00,VWS V14.01,2013-06-18 00:13:00,
2013-06-17 20:18:00,77.7,34.7,29.41,NE,55,0.0,0.0,21,0.00,,SKC,0.00,VWS V14.01,2013-06-18 00:18:00,
2013-06-17 20:23:00,77.4,34.4,29.41,ENE,75,0.0,0.0,21,0.00,,SKC,0.00,VWS V14.01,2013-06-18 00:23:00,
2013-06-17 20:28:00,77.0,34.1,29.41,ENE,68,4.0,4.0,21,0.00,,SKC,0.00,VWS V14.01,2013-06-18 00:28:00,
2013-06-17 20:33:00,76.6,33.8,29.41,ENE,68,0.0,0.0,21,0.00,,SKC,0.00,VWS V14.01,2013-06-18 00:33:00,
2013-06-17 20:38:00,76.3,33.5,29.41,NNE,25,0.0,0.0,21,0.00,,SKC,0.00,VWS V14.01,2013-06-18 00:38:00,
2013-06-17 20:43:00,75.7,33.1,29.41,NNE,24,0.0,0.0,21,0.00,,SKC,0.00,VWS V14.01,2013-06-18 00:43:00,
2013-06-17 20:48:00,75.4,32.8,29.41,NNE,23,0.0,0.0,21,0.00,,SKC,0.00,VWS V14.01,2013-06-18 00:48:00,
2013-06-17 20:53:00,75.0,33.6,29.41,NNE,23,0.0,0.0,22,0.00,,SKC,0.00,VWS V14.01,2013-06-18 00:53:00,
2013-06-17 20:58:00,74.8,33.5,29.41,NNE,23,0.0,0.0,22,0.00,,SKC,0.00,VWS V14.01,2013-06-18 00:58:00,
2013-06-17 21:03:00,74.5,34.3,29.41,NNE,23,0.0,0.0,23,0.00,,SKC,0.00,VWS V14.01,2013-06-18 01:03:00,
2013-06-17 21:08:00,73.9,33.8,29.41,NNE,23,0.0,0.0,23,0.00,,SKC,0.00,VWS V14.01,2013-06-18 01:08:00,
2013-06-17 21:13:00,73.8,33.7,29.44,NNE,23,0.0,0.0,23,0.00,,SKC,0.00,VWS V14.01,2013-06-18 01:13:00,
2013-06-17 21:18:00,73.4,33.4,29.44,NNE,23,0.0,0.0,23,0.00,,SKC,0.00,VWS V14.01,2013-06-18 01:18:00,
2013-06-17 21:23:00,73.0,34.1,29.44,NNE,23,0.0,0.0,24,0.00,,SKC,0.00,VWS V14.01,2013-06-18 01:23:00,
2013-06-17 21:28:00,72.7,33.8,29.44,NNE,23,0.0,0.0,24,0.00,,SKC,0.00,VWS V14.01,2013-06-18 01:28:00,
2013-06-17 21:33:00,72.3,33.5,29.44,NNE,23,0.0,0.0,24,0.00,,SKC,0.00,VWS V14.01,2013-06-18 01:33:00,
2013-06-17 21:38:00,71.8,35.1,29.44,NNE,23,0.0,0.0,26,0.00,,SKC,0.00,VWS V14.01,2013-06-18 01:38:00,
2013-06-17 21:43:00,71.4,35.7,29.44,NNE,23,0.0,0.0,27,0.00,,SKC,0.00,VWS V14.01,2013-06-18 01:43:00,
2013-06-17 21:47:00,71.1,35.4,29.44,NNE,23,0.0,0.0,27,0.00,,SKC,0.00,VWS V14.01,2013-06-18 01:47:00,
2013-06-17 21:52:00,70.7,38.6,29.44,NNE,23,0.0,0.0,31,0.00,,SKC,0.00,VWS V14.01,2013-06-18 01:52:00,
2013-06-17 21:57:00,70.5,37.6,29.44,NNE,24,0.0,0.0,30,0.00,,SKC,0.00,VWS V14.01,2013-06-18 01:57:00,
2013-06-17 22:02:00,70.3,39.1,29.44,NNE,24,0.0,0.0,32,0.00,,SKC,0.00,VWS V14.01,2013-06-18 02:02:00,
2013-06-17 22:07:00,70.2,39.0,29.44,NNE,24,0.0,0.0,32,0.00,,SKC,0.00,VWS V14.01,2013-06-18 02:07:00,
2013-06-17 22:12:00,69.8,38.6,29.44,NNE,24,0.0,0.0,32,0.00,,SKC,0.00,VWS V14.01,2013-06-18 02:12:00,
2013-06-17 22:17:00,69.6,39.3,29.44,NNE,24,0.0,0.0,33,0.00,,SKC,0.00,VWS V14.01,2013-06-18 02:17:00,
2013-06-17 22:22:00,69.4,39.1,29.44,NNE,24,0.0,0.0,33,0.00,,SKC,0.00,VWS V14.01,2013-06-18 02:22:00,
2013-06-17 22:27:00,69.3,39.0,29.44,NNE,24,0.0,0.0,33,0.00,,SKC,0.00,VWS V14.01,2013-06-18 02:27:00,
2013-06-17 22:32:00,69.1,38.8,29.44,NNE,24,0.0,0.0,33,0.00,,SKC,0.00,VWS V14.01,2013-06-18 02:32:00,
2013-06-17 22:37:00,69.1,39.6,29.44,NNE,24,0.0,0.0,34,0.00,,SKC,0.00,VWS V14.01,2013-06-18 02:37:00,
2013-06-17 22:42:00,69.1,39.6,29.44,NNE,24,0.0,0.0,34,0.00,,SKC,0.00,VWS V14.01,2013-06-18 02:42:00,
2013-06-17 22:47:00,68.7,39.2,29.44,NNE,24,0.0,0.0,34,0.00,,SKC,0.00,VWS V14.01,2013-06-18 02:47:00,
2013-06-17 22:52:00,68.7,39.2,29.44,NNE,24,0.0,0.0,34,0.00,,SKC,0.00,VWS V14.01,2013-06-18 02:52:00,
2013-06-17 22:57:00,68.5,39.1,29.44,NNE,24,0.0,0.0,34,0.00,,SKC,0.00,VWS V14.01,2013-06-18 02:57:00,
2013-06-17 23:02:00,68.0,38.6,29.44,NNE,24,0.0,0.0,34,0.00,,SKC,0.00,VWS V14.01,2013-06-18 03:02:00,
2013-06-17 23:07:00,67.8,39.2,29.44,NNE,24,0.0,0.0,35,0.00,,SKC,0.00,VWS V14.01,2013-06-18 03:07:00,
2013-06-17 23:12:00,67.6,39.0,29.44,NNE,24,0.0,0.0,35,0.00,,SKC,0.00,VWS V14.01,2013-06-18 03:12:00,
2013-06-17 23:17:00,67.3,39.4,29.44,NNE,24,0.0,0.0,36,0.00,,SKC,0.00,VWS V14.01,2013-06-18 03:17:00,
2013-06-17 23:22:00,67.1,39.3,29.44,NNE,24,0.0,0.0,36,0.00,,SKC,0.00,VWS V14.01,2013-06-18 03:22:00,
2013-06-17 23:27:00,67.1,39.3,29.44,North,1,0.0,2.2,36,0.00,,SKC,0.00,VWS V14.01,2013-06-18 03:27:00,
2013-06-17 23:32:00,67.1,39.3,29.44,NNE,15,0.0,0.0,36,0.00,,SKC,0.00,VWS V14.01,2013-06-18 03:32:00,
2013-06-17 23:37:00,66.9,39.8,29.44,NNE,15,0.0,0.0,37,0.00,,SKC,0.00,VWS V14.01,2013-06-18 03:37:00,
2013-06-17 23:42:00,67.1,40.0,29.44,NNE,15,0.0,0.0,37,0.00,,SKC,0.00,VWS V14.01,2013-06-18 03:42:00,
2013-06-17 23:47:00,67.1,40.7,29.44,NNE,15,0.0,0.0,38,0.00,,SKC,0.00,VWS V14.01,2013-06-18 03:47:00,
2013-06-17 23:52:00,67.1,40.7,29.44,NNE,15,0.0,0.0,38,0.00,,SKC,0.00,VWS V14.01,2013-06-18 03:52:00,
2013-06-17 23:57:00,67.1,40.7,29.44,NNE,15,0.0,0.0,38,0.00,,SKC,0.00,VWS V14.01,2013-06-18 03:57:00,